Allentown, PA

8:37 AM EST on November 21, 2019 (GMT -0500)
Lehigh Valley International

Weather History for KABE - October, 2019

Change the Weather History Date:

Tuesday, October 15, 2019

  Actual Average Record
Temperature  
Mean Temperature 54 °F 53 °F  
Max Temperature 66 °F 64 °F 82 °F (1947)
Min Temperature 42 °F 41 °F 29 °F (2006)
Degree Days  
Heating Degree Days 11 13  
Month to date heating degree days 155  
Since 1 July heating degree days 270  
Cooling Degree Days 0 0  
Month to date cooling degree days 3  
Year to date cooling degree days 753  
Growing Degree Days 4 (Base 50)    
Moisture  
Dew Point 40 °F    
Average Humidity 60    
Maximum Humidity 89    
Minimum Humidity 34    
Precipitation  
Precipitation 0.00 in 0.13 in 1.62 in (1970)
Month to date precipitation 2.07  
Year to date precipitation 36.46  
Snow  
Snow - 0.00 in T in (2009)
Month to date snowfall 0.0  
Since 1 July snowfall 0.0  
Since 1 September snowfall 0.0  
Snow Depth -    
Sea Level Pressure  
Sea Level Pressure 30.12 in    
Wind  
Wind Speed 3 mph ()    
Max Wind Speed 6 mph    
Max Gust Speed -    
Visibility 10.0 miles    
Events      
T = Trace of Precipitation, MM = Missing Value Source: Averaged Metar Reports

Daily Weather History Graph

Daily Weather History Graph

Search for Another Location

Airport or City:

Astronomy

Oct. 15, 2019 Rise Set
Actual Time 7:12 AM EDT 6:21 PM EDT
Civil Twilight 6:45 AM EDT 6:49 PM EDT
Nautical Twilight 6:13 AM EDT 7:21 PM EDT
Astronomical Twilight 5:41 AM EDT 7:52 PM EDT
Moon 7:40 PM EDT (10/15) 8:41 AM EDT (10/15)
Length of Visible Light 12h 04m
Length of Day
11h 09m
Full, 97% of the Moon is Illuminated
Oct 15
Full
Oct 21
Last Quarter
Oct 27
New
Nov 4
First Quarter
Nov 12
Full

Hourly Weather History & Observations

Time (EDT) Temp. Dew Point Humidity Pressure Visibility Wind Dir Wind Speed Gust Speed Precip Events Conditions
12:51 AM 50.0 °F 39.0 °F 66% 30.09 in 10.0 mi North 5.8 mph - N/A   Clear
1:51 AM 50.0 °F 39.9 °F 68% 30.11 in 10.0 mi NE 3.5 mph - N/A   Clear
2:51 AM 48.0 °F 39.9 °F 74% 30.12 in 10.0 mi NNW 3.5 mph - N/A   Clear
3:51 AM 45.0 °F 39.0 °F 80% 30.13 in 10.0 mi Calm Calm - N/A   Clear
4:51 AM 44.1 °F 37.9 °F 79% 30.14 in 10.0 mi Calm Calm - N/A   Clear
5:51 AM 42.1 °F 37.9 °F 85% 30.15 in 10.0 mi Calm Calm - N/A   Clear
7:51 AM 42.1 °F 39.0 °F 89% 30.19 in 10.0 mi Calm Calm - N/A   Clear
8:51 AM 48.0 °F 41.0 °F 77% 30.20 in 10.0 mi Calm Calm - N/A   Clear
9:51 AM 54.0 °F 41.0 °F 62% 30.21 in 10.0 mi Calm Calm - N/A   Clear
10:51 AM 57.0 °F 39.9 °F 53% 30.20 in 10.0 mi Variable 3.5 mph - N/A   Clear
11:51 AM 60.1 °F 41.0 °F 49% 30.18 in 10.0 mi Variable 3.5 mph - N/A   Clear
12:51 PM 61.0 °F 37.9 °F 42% 30.16 in 10.0 mi Calm Calm - N/A   Clear
1:51 PM 63.0 °F 37.0 °F 38% 30.14 in 10.0 mi SE 4.6 mph - N/A   Clear
2:51 PM 64.9 °F 37.9 °F 37% 30.12 in 10.0 mi WSW 4.6 mph - N/A   Clear
3:51 PM 66.0 °F 37.0 °F 34% 30.09 in 10.0 mi SW 5.8 mph - N/A   Clear
4:51 PM 64.9 °F 39.9 °F 40% 30.08 in 10.0 mi SW 5.8 mph - N/A   Clear
5:51 PM 63.0 °F 39.9 °F 43% 30.07 in 10.0 mi SSW 3.5 mph - N/A   Clear
6:51 PM 59.0 °F 39.0 °F 48% 30.07 in 10.0 mi South 3.5 mph - N/A   Clear
7:51 PM 57.9 °F 39.0 °F 49% 30.07 in 10.0 mi SE 3.5 mph - N/A   Clear
8:51 PM 55.0 °F 41.0 °F 59% 30.06 in 10.0 mi Calm Calm - N/A   Clear
9:51 PM 48.9 °F 39.9 °F 71% 30.06 in 10.0 mi ENE 5.8 mph - N/A   Clear
10:51 PM 55.0 °F 41.0 °F 59% 30.05 in 10.0 mi East 5.8 mph - N/A   Clear
11:51 PM 55.9 °F 45.0 °F 67% 30.04 in 10.0 mi South 4.6 mph - N/A   Clear